[[{"header":{"parameterUnit":"m.s-1","parameterCategory":1,"la1":30.2991,"la2":30.254,"lo1":-89.0895,"lo2":-89.0444,"dy":0.0017,"dx":0.0017,"nx":28,"ny":28,"refTime":"2024-02-07T03:00:00:Z","depth":0,"parameterNumber":2,"parameterNumberName":"U-component_of_WINDS"},"data":[0,0,0,0,0,0,0,0,0,0,0,0,0,0,0,0,0,0,0,0,0,0,0,0,0,0,0,0,0,0,0,0,0,0,0,0,0,0,0,0,0,0,0,0,0,0,0,0,0,0,0,0,0,0,0,0,0,0,-3.4848,-3.4849,0,-3.4975,-3.4976,-3.4978,-3.5004,-3.5003,-3.5002,-3.5001,-3.513,-3.5134,-3.5138,0,0,0,0,0,0,0,0,0,0,0,0,0,-3.4627,-3.4631,-3.4847,-3.4849,-3.4851,-3.4975,-3.4976,-3.4978,-3.5004,-3.5003,-3.5002,-3.5001,-3.5128,-3.5133,-3.5139,0,0,0,0,0,0,0,0,0,0,0,0,0,-3.4736,-3.4633,-3.4847,-3.4879,-3.4883,-3.4974,-3.4976,-3.4979,-3.5004,-3.5003,-3.5002,-3.5,-3.5127,-3.5133,-3.5139,-3.5208,0,0,-3.5159,-3.5162,0,0,0,0,0,0,0,0,-3.4729,-3.4744,-3.4872,-3.4877,-3.4881,-3.4972,-3.4946,-3.5055,-3.5005,-3.4958,-3.5001,-3.4999,-3.5078,-3.5089,-3.5116,-3.5214,-3.5219,-3.516,-3.5164,-3.5166,-3.5168,0,0,0,0,0,0,0,-3.4722,-3.4738,-3.4898,-3.4874,-3.488,-3.4887,-3.49,-3.4967,-3.5025,-3.4962,-3.4964,-3.4979,-3.508,-3.5109,-3.5119,-3.5221,-3.5159,-3.5165,-3.5169,-3.5172,-3.5384,-3.5386,0,0,0,0,0,0,-3.4709,-3.4732,-3.4894,-3.4902,-3.48,-3.4892,-3.4907,-3.4944,-3.5024,-3.5035,-3.498,-3.498,-3.5099,-3.5111,-3.5123,-3.5209,-3.5166,-3.5172,-3.5176,-3.5382,-3.5384,-3.5386,0,0,0,0,0,0,-3.4704,-3.4723,-3.4889,-3.4818,-3.4839,-3.4897,-3.4939,-3.4948,-3.4976,-3.5038,-3.5048,-3.4999,-3.5098,-3.5114,-3.5187,-3.5214,-3.5175,-3.5181,-3.538,-3.5383,-3.5385,-3.538,0,0,0,0,0,0,-3.4698,-3.4721,-3.4747,-3.4818,-3.4843,-3.495,-3.494,-3.4951,-3.4988,-3.4989,-3.5058,-3.5068,-3.5098,-3.5177,-3.5194,-3.5222,-3.5186,-3.5378,-3.5381,-3.5384,-3.5378,-3.5382,-3.5386,0,0,0,0,0,-3.469,-3.474,-3.4749,-3.4768,-3.4877,-3.4951,-3.4966,-3.5,-3.499,-3.5017,-3.5057,-3.5066,-3.5209,-3.5185,-3.5203,-3.5234,-3.5376,-3.538,-3.5384,-3.5377,-3.5382,-3.5386,0,0,0,0,0,0,-3.467,-3.475,-3.476,-3.4835,-3.4887,-3.4956,-3.499,-3.5004,-3.5058,-3.5057,-3.5097,-3.5112,-3.5183,-3.5216,-3.5187,-3.5305,-3.5292,-3.53,-3.528,-3.5285,-3.5289,-3.5278,-3.5192,0,0,0,0,0,-3.4675,-3.4729,-3.4796,-3.4856,-3.4881,-3.4932,-3.4965,-3.4988,-3.5042,-3.5063,-3.5109,-3.5161,-3.5218,-3.5254,-3.531,-3.5385,-3.54,-3.5415,-3.5419,-3.5422,-3.5427,-3.547,-3.5477,-3.5399,-3.5399,-3.5399,0,0,-3.4685,-3.4735,-3.4766,-3.4853,-3.4895,-3.495,-3.4949,-3.5007,-3.5048,-3.5072,-3.5143,-3.5179,-3.524,-3.5314,-3.5349,-3.5344,-3.5453,-3.5427,-3.5429,-3.5433,-3.5475,-3.5482,-3.5489,-3.5402,-3.5401,-3.5401,0,0,-3.473,-3.4774,-3.4828,-3.4872,-3.4936,-3.497,-3.4983,-3.5052,-3.5076,-3.5149,-3.5168,-3.5218,-3.5315,-3.5358,-3.5393,-3.5458,-3.5468,-3.5475,-3.5494,-3.5535,-3.5541,-3.5547,-3.5569,-3.5577,-3.5481,-3.5481,-3.5481,0,-3.4733,-3.4816,-3.4855,-3.4912,-3.495,-3.4976,-3.5032,-3.5072,-3.5151,-3.5177,-3.5171,-3.5294,-3.5337,-3.5422,-3.5438,-3.5466,-3.5482,-3.5466,-3.5538,-3.5544,-3.555,-3.5571,-3.558,-3.5481,-3.5481,-3.5481,-3.5481,0,-3.4817,-3.4875,-3.4912,-3.4988,-3.5031,-3.5087,-3.5134,-3.5173,-3.5193,-3.5227,-3.5302,-3.5355,-3.5422,-3.5445,-3.5464,-3.5533,-3.5528,-3.553,-3.5517,-3.5557,-3.5578,-3.5586,-3.5482,-3.5482,-3.5482,-3.5482,0,0,-3.4849,-3.4949,-3.4962,-3.4997,-3.5072,-3.5118,-3.5177,-3.5243,-3.5275,-3.5331,-3.538,-3.5463,-3.5466,-3.5505,-3.5531,-3.5567,-3.5615,-3.5564,-3.5566,-3.557,-3.5694,-3.569,-3.5699,-3.5624,-3.5626,-3.5627,-3.5688,0,-3.4902,-3.5006,-3.5044,-3.513,-3.5184,-3.5212,-3.5263,-3.5315,-3.535,-3.5401,-3.544,-3.5498,-3.5498,-3.5522,-3.5559,-3.5601,-3.564,-3.5597,-3.5669,-3.5671,-3.565,-3.571,-3.5707,-3.5761,-3.5697,-3.5698,-3.5699,0,-3.4976,-3.5033,-3.5124,-3.5194,-3.5219,-3.5263,-3.5329,-3.5378,-3.5438,-3.5461,-3.5507,-3.553,-3.5593,-3.5579,-3.5666,-3.5637,-3.5669,-3.5695,-3.5698,-3.5703,-3.5685,-3.5716,-3.5779,-3.5787,-3.5713,-3.5712,-3.5711,0,-3.4988,-3.5088,-3.5156,-3.5186,-3.527,-3.5301,-3.5337,-3.5396,-3.5435,-3.5492,-3.5518,-3.5582,-3.5616,-3.5665,-3.5706,-3.5692,-3.5789,-3.5779,-3.5809,-3.5808,-3.5826,-3.5823,-3.5893,-3.5851,-3.5851,-3.585,-3.585,0,-3.5041,-3.5096,-3.5163,-3.5204,-3.5267,-3.5311,-3.5372,-3.541,-3.5463,-3.5512,-3.5542,-3.5587,-3.5639,-3.5692,-3.5725,-3.5792,-3.5808,-3.5828,-3.5835,-3.5824,-3.5821,-3.5843,-3.584,-3.5853,-3.5852,-3.5852,-3.5851,0,-3.5064,-3.5111,-3.5187,-3.5261,-3.5281,-3.5324,-3.5387,-3.5429,-3.5467,-3.5529,-3.5547,-3.5606,-3.567,-3.5717,-3.5799,-3.5821,-3.5893,-3.5901,-3.5872,-3.5875,-3.5903,-3.5899,-3.5987,-3.6001,-3.5951,-3.5951,-3.5952,0,-3.5093,-3.5136,-3.5215,-3.5251,-3.5287,-3.5345,-3.5384,-3.5431,-3.5471,-3.5545,-3.5577,-3.5644,-3.5699,-3.5801,-3.5851,-3.5915,-3.5924,-3.5951,-3.5934,-3.5921,-3.5923,-3.5919,-3.5923,-3.5952,-3.5953,-3.5953,-3.5953,0,-3.514,-3.5162,-3.5218,-3.5284,-3.5331,-3.5384,-3.5438,-3.5466,-3.5522,-3.5566,-3.5633,-3.5676,-3.5762,-3.5827,-3.5897,-3.5935,-3.5953,-3.5959,-3.5969,-3.5956,-3.5937,-3.5946,-3.5876,-3.5956,-3.5955,-3.5955,-3.5955,-3.5955,-3.5166,-3.5205,-3.5268,-3.533,-3.5376,-3.5426,-3.5469,-3.5514,-3.557,-3.5643,-3.5668,-3.5737,-3.5798,-3.5894,-3.5933,-3.5988,-3.5987,-3.6002,-3.6005,-3.6007,-3.6006,-3.5931,-3.6001,-3.6001,-3.6001,-3.6001,-3.6001,0,-3.5212,-3.5255,-3.5312,-3.5387,-3.5436,-3.5452,-3.5513,-3.5553,-3.5614,-3.567,-3.5724,-3.5802,-3.5866,-3.5923,-3.5991,-3.6024,-3.6034,-3.604,-3.6036,-3.6045,-3.6004,-3.5987,-3.603,-3.603,-3.603,-3.603,-3.603,-3.603,-3.5242,-3.531,-3.534,-3.5431,-3.5474,-3.5541,-3.5575,-3.5622,-3.5667,-3.5752,-3.5806,-3.5844,-3.5901,-3.5973,-3.6033,-3.6049,-3.6071,-3.6075,-3.6091,-3.6051,-3.6048,-3.6044,-3.6029,-3.608,-3.608,-3.6128,-3.6128,-3.6128]},{"header":{"parameterUnit":"m.s-1","parameterCategory":1,"la1":30.2991,"la2":30.254,"lo1":-89.0895,"lo2":-89.0444,"dy":0.0017,"dx":0.0017,"nx":28,"ny":28,"refTime":"2024-02-07T03:00:00:Z","depth":0,"parameterNumber":3,"parameterNumberName":"V-component_of_WINDS"},"data":[0,0,0,0,0,0,0,0,0,0,0,0,0,0,0,0,0,0,0,0,0,0,0,0,0,0,0,0,0,0,0,0,0,0,0,0,0,0,0,0,0,0,0,0,0,0,0,0,0,0,0,0,0,0,0,0,0,0,1.6183,1.6185,0,1.6359,1.6361,1.6363,1.6433,1.6433,1.6432,1.6432,1.6617,1.6623,1.6628,0,0,0,0,0,0,0,0,0,0,0,0,0,1.5917,1.5921,1.6183,1.6185,1.6188,1.6359,1.6361,1.6363,1.6433,1.6432,1.6432,1.6431,1.6616,1.6622,1.6628,0,0,0,0,0,0,0,0,0,0,0,0,0,1.6057,1.5923,1.6183,1.6243,1.625,1.6358,1.6361,1.6364,1.6433,1.6432,1.6432,1.6431,1.6614,1.6621,1.6629,1.6693,0,0,1.6654,1.6657,0,0,0,0,0,0,0,0,1.6049,1.6066,1.6232,1.6239,1.6247,1.6373,1.6335,1.6474,1.6433,1.6364,1.6432,1.6431,1.6537,1.6551,1.6586,1.6701,1.6709,1.6655,1.666,1.6663,1.6665,0,0,0,0,0,0,0,1.6039,1.6059,1.6253,1.6234,1.6244,1.6264,1.6283,1.6362,1.6452,1.637,1.6375,1.6395,1.6541,1.6578,1.6591,1.6712,1.6654,1.6662,1.6667,1.667,1.6893,1.6894,0,0,0,0,0,0,1.6018,1.6051,1.6247,1.6258,1.6144,1.6269,1.6291,1.6334,1.6452,1.6469,1.6395,1.6397,1.6565,1.6581,1.6598,1.6682,1.6663,1.667,1.6675,1.6892,1.6893,1.6894,0,0,0,0,0,0,1.6012,1.6035,1.624,1.6156,1.6184,1.6274,1.6322,1.6337,1.6374,1.6471,1.6488,1.6416,1.6565,1.6586,1.6669,1.6689,1.6674,1.6681,1.6891,1.6892,1.6894,1.6849,0,0,0,0,0,0,1.6004,1.6032,1.6055,1.6156,1.6188,1.6306,1.6323,1.6341,1.6387,1.6392,1.6494,1.6511,1.6566,1.6657,1.6677,1.67,1.6688,1.6889,1.6891,1.6893,1.6849,1.6849,1.6848,0,0,0,0,0,1.5994,1.6036,1.6056,1.6079,1.6218,1.6307,1.6325,1.6386,1.6388,1.6414,1.6476,1.6508,1.6684,1.6664,1.6688,1.6714,1.6888,1.6891,1.6893,1.6849,1.6849,1.6848,0,0,0,0,0,0,1.5936,1.605,1.6073,1.6148,1.6217,1.6318,1.6351,1.6383,1.6454,1.6456,1.653,1.6553,1.663,1.6681,1.6657,1.6784,1.6789,1.6796,1.6747,1.6748,1.6747,1.6734,1.6694,0,0,0,0,0,1.5932,1.5992,1.609,1.6146,1.618,1.6259,1.6301,1.6342,1.6417,1.6447,1.6515,1.6589,1.6662,1.6708,1.678,1.6857,1.6882,1.6887,1.6887,1.6886,1.6891,1.694,1.6944,1.6902,1.6902,1.6902,0,0,1.5924,1.5994,1.6027,1.6137,1.6195,1.6258,1.6283,1.6349,1.6398,1.6458,1.6539,1.6593,1.6681,1.6762,1.6801,1.6806,1.6909,1.6889,1.6888,1.6894,1.6943,1.6946,1.695,1.6904,1.6904,1.6904,0,0,1.5942,1.5999,1.6054,1.6112,1.62,1.6253,1.6267,1.6364,1.6401,1.6484,1.6531,1.6593,1.6715,1.6776,1.6823,1.6869,1.6901,1.689,1.6889,1.6935,1.6938,1.6942,1.696,1.6965,1.6896,1.6896,1.6895,0,1.5921,1.6016,1.6079,1.6142,1.6191,1.6247,1.6305,1.6359,1.6466,1.65,1.6504,1.6661,1.6724,1.6821,1.6832,1.6868,1.6888,1.6878,1.6932,1.6936,1.6941,1.6959,1.6965,1.6894,1.6894,1.6894,1.6894,0,1.5988,1.6053,1.6088,1.6188,1.6241,1.6301,1.6376,1.6422,1.646,1.6514,1.6601,1.6679,1.6768,1.6795,1.6832,1.6899,1.69,1.6917,1.6924,1.6941,1.696,1.6967,1.6891,1.6892,1.6892,1.6893,0,0,1.5971,1.6108,1.6119,1.6167,1.6269,1.6323,1.6388,1.6474,1.6513,1.6587,1.6645,1.6749,1.6767,1.6821,1.6867,1.6907,1.6941,1.692,1.6924,1.6922,1.7022,1.7008,1.7015,1.6963,1.6965,1.6966,1.7015,0,1.6003,1.6118,1.6179,1.627,1.6333,1.639,1.6447,1.6518,1.6571,1.6635,1.6696,1.6769,1.6785,1.6819,1.6861,1.6927,1.6962,1.6925,1.7021,1.7023,1.6996,1.7024,1.7009,1.7051,1.7023,1.7024,1.7025,0,1.6055,1.6126,1.6223,1.6321,1.635,1.64,1.6486,1.6545,1.6629,1.6665,1.6726,1.6772,1.6847,1.6849,1.6954,1.6928,1.6972,1.7011,1.7014,1.7025,1.7024,1.7037,1.7066,1.7072,1.7036,1.7035,1.7035,0,1.6035,1.6156,1.623,1.6269,1.6384,1.6418,1.6469,1.6551,1.6601,1.6677,1.6711,1.6795,1.6842,1.6908,1.6977,1.6972,1.7077,1.7084,1.7111,1.711,1.713,1.7128,1.7167,1.7158,1.7158,1.7158,1.7158,0,1.6064,1.6121,1.6222,1.6268,1.6335,1.6406,1.6472,1.6527,1.6601,1.6661,1.6716,1.6772,1.6859,1.6927,1.6982,1.7063,1.7083,1.7117,1.7131,1.7112,1.7108,1.7141,1.714,1.7159,1.7159,1.7159,1.7158,0,1.6052,1.6121,1.6206,1.6309,1.6337,1.6382,1.6472,1.652,1.6577,1.6653,1.6675,1.6766,1.6849,1.6924,1.7035,1.7073,1.7155,1.7172,1.7126,1.7133,1.7157,1.7154,1.7219,1.7232,1.7213,1.7213,1.7213,0,1.6066,1.6111,1.6219,1.6262,1.6311,1.6379,1.643,1.6503,1.6554,1.6655,1.6692,1.6779,1.6852,1.6983,1.7061,1.7147,1.7168,1.7185,1.7181,1.7161,1.7169,1.7165,1.7172,1.7183,1.7183,1.7183,1.7183,0,1.6084,1.6116,1.6185,1.6268,1.6326,1.6395,1.6466,1.6499,1.6586,1.6642,1.6726,1.6783,1.6897,1.6983,1.7079,1.7135,1.7175,1.7184,1.7195,1.7176,1.7147,1.7164,1.7124,1.7182,1.7182,1.7182,1.7182,1.7182,1.6086,1.613,1.6212,1.6289,1.635,1.6415,1.6466,1.653,1.6601,1.6698,1.6738,1.6825,1.6912,1.7044,1.71,1.7171,1.7179,1.7195,1.7199,1.7202,1.7199,1.7136,1.7189,1.7189,1.719,1.719,1.719,0,1.6107,1.6164,1.6233,1.633,1.6391,1.6422,1.6503,1.6553,1.6627,1.6704,1.6775,1.6875,1.696,1.7045,1.7136,1.7177,1.7198,1.7199,1.7197,1.721,1.7186,1.7167,1.7181,1.7181,1.7181,1.7181,1.7181,1.7181,1.6125,1.6202,1.6245,1.6353,1.6411,1.6494,1.6538,1.6601,1.6662,1.677,1.684,1.6895,1.6977,1.7075,1.7156,1.7179,1.7211,1.7206,1.7235,1.7211,1.7211,1.7211,1.7194,1.7212,1.7212,1.7253,1.7253,1.7253]}]]